STARLINK-35657

Last updated on Wed Dec 10 2025 00:02:05 GMT+0000 (Coordinated Universal Time)

1 66399U 25257V 25343.66668981 .00096591 00000+0 24020-2 0 9990 2 66399 53.1598 278.7173 0001137 107.1564 140.1326 15.39521878 6009
UTC large
Height (km)
Speed (km/s)
/
Latitude / Longitude
Inclination (degrees)
Orbital Period (minutes)
Azimuth
Elevation
Range (km)
Doppler Factor

Next 0 passes for location: London (51.5072 / 0.1276)

Sorry there are no passes over London.